Date String (YYYY-MM-DD hh:mm:ss) UTC,Instrument flags,absolute air pressure of the measurement (hPa),sample flow rate (lpm),inlet stack bypass flow (lpm),air temperature of the measurement (°C),ambient temperature measured by the external sensor (°C),aerosol sample conditioner tube jacket temperature (°C),OPC LED temperature (°C),internal box temperature (°C),relative humidity of the measurement (%),span deviation,mass concentration of particles derived from Lorenz-Mie calculation of OPC scattering (μg/m³),mass concentration of particles derived from Lorenz-Mie calculation of OPC scattering (μg/m³),mass concentration of particles derived from Lorenz-Mie calculation of OPC scattering (μg/m³)
DateTimeUTC,F1_M11,P_M11,Q1_M11,Q2_M11,T1_M11,T2_M11,T3_M11,T4_M11,T5_M11,U1_M11,ZSPAN_M11,X0_M11,X2_M11,X1_M11
2023-09-28 09:00:00,SystemResetWarning,0827.9,5.00,000.00,028.7,027.5,000.0,037.1,030.5,10.2,0000.0,0008.66,0004.37,0003.96
2023-09-28 09:01:00,SystemResetWarning,0827.9,5.00,000.00,028.7,027.6,000.0,037.1,030.5,10.2,0000.0,0008.66,0004.39,0003.98
2023-09-28 09:02:00,SystemResetWarning,0827.8,5.00,000.00,028.8,027.6,000.0,037.1,030.5,10.1,0000.0,0008.92,0004.42,0004.02
2023-09-28 09:03:00,SystemResetWarning,0827.8,5.00,000.00,028.8,027.6,000.0,037.2,030.5,10.0,0000.0,0009.08,0004.53,0004.08
2023-09-28 09:04:00,SystemResetWarning,0827.8,5.00,000.00,028.8,027.7,000.0,037.2,030.6,10.0,0000.0,0009.21,0004.60,0004.14
2023-09-28 09:05:00,SystemResetWarning,0827.8,5.00,000.00,028.8,027.7,000.0,037.2,030.6,9.9,0000.0,0009.43,0004.70,0004.22
2023-09-28 09:06:00,SystemResetWarning,0827.8,5.00,000.00,028.9,027.7,000.0,037.2,030.6,9.8,0000.0,0010.21,0004.87,0004.32
2023-09-28 09:07:00,SystemResetWarning,0827.8,4.99,000.00,028.9,027.1,000.0,037.2,030.6,9.9,0000.0,0010.43,0005.02,0004.41
2023-09-28 09:08:00,SystemResetWarning,0828.0,5.01,000.00,028.8,025.1,000.0,037.1,030.4,9.8,0000.0,0011.10,0005.16,0004.49
2023-09-28 09:09:00,SystemResetWarning,0827.9,5.01,000.00,028.7,024.5,000.0,037.1,030.2,9.9,0000.0,0011.22,0005.23,0004.56
2023-09-28 09:10:00,SystemResetWarning,0827.9,5.00,000.00,028.6,024.7,000.0,037.1,030.0,9.9,0000.0,0011.64,0005.29,0004.64
2023-09-28 09:11:00,SystemResetWarning,0827.8,4.99,000.00,028.5,025.0,000.0,037.1,029.9,9.9,0000.0,0011.41,0005.34,0004.69
2023-09-28 09:12:00,SystemResetWarning,0827.9,5.01,000.00,028.5,025.4,000.0,037.1,029.9,10.7,0000.0,0011.55,0005.40,0004.74
2023-09-28 09:13:00,SystemResetWarning,0827.8,5.00,000.00,028.4,025.7,000.0,037.0,030.0,11.5,0000.0,0011.63,0005.45,0004.79
2023-09-28 09:14:00,SystemResetWarning,0827.8,5.00,000.00,028.4,026.1,000.0,037.0,030.0,11.3,0000.0,0013.50,0005.47,0004.79
2023-09-28 09:15:00,SystemResetWarning,0827.8,5.00,000.00,028.4,026.3,000.0,037.0,030.1,11.5,0000.0,0014.31,0005.48,0004.79
2023-09-28 09:16:00,SystemResetWarning,0827.8,5.01,000.00,028.4,026.5,000.0,037.0,030.1,12.3,0000.0,0014.90,0005.49,0004.80
2023-09-28 09:17:00,SystemResetWarning,0827.8,5.01,000.00,028.5,026.7,000.0,037.0,030.2,12.1,0000.0,0014.62,0005.42,0004.78
2023-09-28 09:18:00,SystemResetWarning,0827.8,5.00,000.00,028.5,026.9,000.0,037.0,030.2,11.6,0000.0,0013.86,0005.38,0004.77
2023-09-28 09:19:00,SystemResetWarning,0827.8,5.00,000.00,028.5,027.0,000.0,037.0,030.2,11.5,0000.0,0013.32,0005.32,0004.75
2023-09-28 09:20:00,SystemResetWarning,0827.8,5.00,000.00,028.5,027.1,000.0,037.0,030.2,11.1,0000.0,0013.09,0005.28,0004.74
2023-09-28 09:21:00,SystemResetWarning,0827.8,5.00,000.00,028.5,027.2,000.0,037.0,030.3,11.1,0000.0,0012.65,0005.28,0004.73
2023-09-28 09:22:00,SystemResetWarning,0828.0,5.00,000.00,028.6,027.3,000.0,037.0,030.3,11.2,0000.0,0012.54,0005.31,0004.71
2023-09-28 09:23:00,SystemResetWarning,0827.9,5.00,000.00,028.6,027.4,000.0,037.0,030.4,11.0,0000.0,0012.57,0005.29,0004.67
2023-09-28 09:24:00,SystemResetWarning,0827.8,5.00,000.00,028.6,027.4,000.0,037.0,030.4,11.0,0000.0,0012.40,0005.24,0004.61
2023-09-28 09:25:00,SystemResetWarning,0827.9,5.00,000.00,028.6,027.5,000.0,037.1,030.4,10.9,0000.0,0010.82,0005.15,0004.56
2023-09-28 09:26:00,SystemResetWarning,0827.9,5.00,000.00,028.7,027.5,000.0,037.1,030.4,10.8,0000.0,0009.47,0005.05,0004.49
2023-09-28 09:27:00,SystemResetWarning,0827.8,4.99,000.00,028.7,027.5,000.0,037.1,030.5,10.6,0000.0,0008.64,0004.98,0004.43
2023-09-28 09:28:00,SystemResetWarning,0827.9,5.00,000.00,028.7,027.6,000.0,037.1,030.5,10.4,0000.0,0008.77,0004.99,0004.38
2023-09-28 09:29:00,SystemResetWarning,0827.7,5.00,000.00,028.8,027.6,000.0,037.1,030.5,10.2,0000.0,0008.67,0004.90,0004.31
2023-09-28 09:30:00,SystemResetWarning,0827.8,5.00,000.00,028.8,027.6,000.0,037.2,030.5,10.2,0000.0,0008.45,0004.83,0004.25
2023-09-28 09:31:00,SystemResetWarning,0827.7,5.00,000.00,028.8,027.7,000.0,037.2,030.6,10.3,0000.0,0008.33,0004.75,0004.20
2023-09-28 09:32:00,SystemResetWarning,0827.8,5.00,000.00,028.8,027.7,000.0,037.2,030.6,10.2,0000.0,0008.52,0004.65,0004.11
2023-09-28 09:33:00,SystemResetWarning,0827.8,5.00,000.00,028.9,027.7,000.0,037.2,030.6,10.3,0000.0,0008.40,0004.53,0004.04
2023-09-28 09:34:00,SystemResetWarning,0827.7,5.00,000.00,028.9,027.7,000.0,037.2,030.6,10.3,0000.0,0008.17,0004.44,0004.00
2023-09-28 09:35:00,SystemResetWarning,0827.8,5.01,000.00,028.9,027.8,000.0,037.3,030.6,10.4,0000.0,0008.38,0004.41,0003.98
2023-09-28 09:36:00,SystemResetWarning,0827.8,5.00,000.00,028.9,027.8,000.0,037.3,030.7,10.6,0000.0,0008.66,0004.38,0003.96
2023-09-28 09:37:00,SystemResetWarning,0827.7,5.00,000.00,028.9,027.8,000.0,037.3,030.7,9.9,0000.0,0008.65,0004.38,0003.96
2023-09-28 09:38:00,SystemResetWarning,0827.8,5.00,000.00,029.0,027.7,000.0,037.3,030.7,9.7,0000.0,0008.65,0004.36,0003.96
2023-09-28 09:39:00,SystemResetWarning,0827.9,4.99,000.00,028.9,026.0,000.0,037.3,030.5,10.0,0000.0,0008.52,0004.29,0003.95
2023-09-28 09:40:00,SystemResetWarning,0827.8,5.01,000.00,028.8,024.7,000.0,037.2,030.3,10.0,0000.0,0008.44,0004.27,0003.95
2023-09-28 09:41:00,SystemResetWarning,0827.8,5.02,000.00,028.7,024.6,000.0,037.2,030.1,10.0,0000.0,0008.36,0004.27,0003.97
2023-09-28 09:42:00,SystemResetWarning,0827.8,5.00,000.00,028.6,024.8,000.0,037.2,030.0,10.3,0000.0,0008.28,0004.28,0003.98
2023-09-28 09:43:00,SystemResetWarning,0827.8,5.00,000.00,028.5,025.2,000.0,037.2,030.0,10.2,0000.0,0008.10,0004.32,0004.01
2023-09-28 09:44:00,SystemResetWarning,0827.8,5.01,000.00,028.5,025.6,000.0,037.1,030.0,10.1,0000.0,0007.95,0004.35,0004.03
2023-09-28 09:45:00,SystemResetWarning,0827.8,5.00,000.00,028.5,025.9,000.0,037.1,030.1,10.1,0000.0,0007.97,0004.38,0004.05
2023-09-28 09:46:00,SystemResetWarning,0827.9,5.00,000.00,028.5,026.2,000.0,037.1,030.1,10.1,0000.0,0007.77,0004.42,0004.09
2023-09-28 09:47:00,SystemResetWarning,0827.9,5.00,000.00,028.5,026.4,000.0,037.1,030.2,10.1,0000.0,0007.35,0004.46,0004.11
2023-09-28 09:48:00,SystemResetWarning,0827.9,5.00,000.00,028.5,026.6,000.0,037.1,030.2,10.1,0000.0,0007.27,0004.46,0004.12
2023-09-28 09:49:00,SystemResetWarning,0828.0,4.99,000.00,028.5,026.8,000.0,037.1,030.2,10.4,0000.0,0007.88,0004.48,0004.13
2023-09-28 09:50:00,SystemResetWarning,0828.0,5.00,000.00,028.5,026.9,000.0,037.1,030.2,10.5,0000.0,0008.04,0004.50,0004.15
2023-09-28 09:51:00,SystemResetWarning,0828.0,5.00,000.00,028.5,027.0,000.0,037.1,030.3,10.4,0000.0,0008.01,0004.52,0004.17
2023-09-28 09:52:00,SystemResetWarning,0827.9,5.00,000.00,028.6,027.2,000.0,037.1,030.3,10.5,0000.0,0008.10,0004.57,0004.20
2023-09-28 09:53:00,SystemResetWarning,0828.0,5.00,000.00,028.6,027.2,000.0,037.1,030.3,10.5,0000.0,0008.26,0004.64,0004.23
2023-09-28 09:54:00,SystemResetWarning,0828.1,5.00,000.00,028.6,027.3,000.0,037.1,030.3,10.5,0000.0,0008.55,0004.70,0004.26
2023-09-28 09:55:00,SystemResetWarning,0828.0,5.01,000.00,028.6,027.4,000.0,037.1,030.4,10.7,0000.0,0008.53,0004.71,0004.28
2023-09-28 09:56:00,SystemResetWarning,0828.1,5.01,000.00,028.7,027.4,000.0,037.1,030.4,10.8,0000.0,0008.69,0004.75,0004.29
2023-09-28 09:57:00,SystemResetWarning,0828.1,5.00,000.00,028.7,027.5,000.0,037.1,030.4,10.6,0000.0,0008.70,0004.75,0004.30
2023-09-28 09:58:00,SystemResetWarning,0828.1,4.99,000.00,028.7,027.5,000.0,037.1,030.5,10.8,0000.0,0008.72,0004.76,0004.31
2023-09-28 09:59:00,SystemResetWarning,0828.1,5.00,000.00,028.7,027.6,000.0,037.2,030.5,10.7,0000.0,0008.78,0004.80,0004.34
